Location: Emory University Observatory
(33.7903°N, 84.3267°W)
Time: 23:12:33
(UTC-04:00)

Hubble Space Telescope - Pass Details

Date: 09 October 2017
Orbit: 537 x 541 km, 28.5° (Epoch: 20 October)

Event Time Altitude Azimuth Distance (km) Brightness Sun altitude
Exits shadow 06:53:05 11° 245° (WSW) 1,714 2.8 -10.1°
Maximum altitude 06:56:01 21° 197° (SSW) 1,219 2.4 -9.5°
Drops below altitude 10° 06:59:12 10° 147° (SSE) 1,785 3.9 -8.8°
Sets 07:01:50 0° 131° (SE) 2,675 5.2 -8.3°
